カタログに戻る

THORAD AGENA D DEB

運用中PO
NORAD 4777·DEBRIS·🇺🇸 United States

打ち上げ Apr 8, 1970 から Vandenberg Space Force Base

Loading…

次のパス

TLE

Source: Space-Track
1  4777U 70025DX  26224.15691266  .00000173  00000-0  17538-3 0  9999
2  4777  99.9432 341.7628 0005302 328.3254 153.0893 13.91887932814824

AllMySatでTHORAD AGENA D DEBをリアルタイム追跡

Download on the App Store